Location: Unspecified
(44.4377°N, 88.0525°W)
Time: 10:55:38
(UTC-05:00)

Cosmos 2058 - Visible Passes

Search period start: 28 June 2017 00:00
Search period end: 08 July 2017 00:00
Orbit: 565 x 584 km, 82.5° (Epoch: 27 June)

Date Brightness Start Highest point End Pass type
(mag) Time Alt. Az. Time Alt. Az. Time Alt. Az.
28 Jun 4.0 21:50:47 14° SE 21:53:41 29° E 21:57:20 10° NNE visible
28 Jun 5.0 23:27:09 10° SW 23:30:36 24° WNW 23:34:05 10° NNW visible
29 Jun 3.6 21:53:41 14° SSE 21:56:58 38° E 22:00:54 10° NNE visible
29 Jun 5.4 23:31:02 10° WSW 23:34:04 19° WNW 23:37:07 10° NNW visible
30 Jun 3.2 21:56:32 12° SSE 22:00:17 51° E 22:04:23 10° NNE visible
30 Jun 5.6 23:35:08 10° WSW 23:37:34 15° WNW 23:40:00 10° NNW visible
01 Jul 2.9 21:59:27 10° S 22:03:36 69° E 22:07:50 10° NNE visible
01 Jul 5.8 23:39:37 10° W 23:41:04 11° WNW 23:42:32 10° NW visible
02 Jul 2.9 22:02:45 10° S 22:06:58 89° WNW 22:11:13 10° N visible
03 Jul 3.3 22:06:09 10° SSW 22:10:20 67° W 22:14:34 10° N visible
04 Jul 3.8 22:09:38 10° SSW 22:13:44 50° WNW 22:17:51 10° N visible
05 Jul 4.4 22:13:12 10° SW 22:17:08 38° WNW 22:21:06 10° N visible
06 Jul 4.9 22:16:53 10° SW 22:20:33 29° WNW 22:24:17 10° NNW visible
07 Jul 5.3 22:20:40 10° SW 22:24:00 23° WNW 22:27:23 10° NNW visible
